Kekaha, HI

2:04 AM HST on August 26, 2016 (GMT -1000)
Barking Sands PMRF

Weather History for PHBK - December, 2012

Change the Weather History Date:

Wednesday, December 5, 2012

  Actual Average Record
Temperature  
Mean Temperature 76 °F -  
Max Temperature 82 °F 82 °F 86 °F (1957)
Min Temperature 70 °F 63 °F 57 °F (1949)
Cooling Degree Days 11    
Growing Degree Days 26 (Base 50)    
Moisture  
Dew Point 59 °F    
Average Humidity 58    
Maximum Humidity 87    
Minimum Humidity 27    
Precipitation  
Precipitation 0.13 in - - ()
Sea Level Pressure  
Sea Level Pressure 30.03 in    
Wind  
Wind Speed 5 mph (SE)    
Max Wind Speed 15 mph    
Max Gust Speed 22 mph    
Visibility 10 miles    
Events Rain    
Averages and records for this station are not official NWS values.
T = Trace of Precipitation, MM = Missing Value Source: NWS Daily Summary

Daily Weather History Graph

Daily Weather History Graph

Search for Another Location

Airport or City:

Trip Planner

Search our weather history database for the weather conditions in past years. The results will help you decide how hot, cold, wet, or windy it might be!

Date:

Astronomy

Dec. 05, 2012 Rise Set
Actual Time 7:04 AM HST 5:55 PM HST
Civil Twilight 6:40 AM HST 6:19 PM HST
Nautical Twilight 6:12 AM HST 6:47 PM HST
Astronomical Twilight 5:45 AM HST 7:14 PM HST
Moon No Moon Rise 12:07 PM HST (12/5)
Length of Visible Light 11h 39m
Length of Day
10h 50m
Waning Gibbous, 58% of the Moon is Illuminated
Dec 5
Waning Gibbous
Dec 6
Last Quarter
Dec 12
New
Dec 19
First Quarter
Dec 28
Full

Hourly Weather History & Observations

Time (HST) Temp. Heat Index Dew Point Humidity Pressure Visibility Wind Dir Wind Speed Gust Speed Precip Events Conditions
12:04 AM 71.6 °F - 57.2 °F 60% 30.10 in 4.0 mi Calm Calm - 0.04 in Rain Rain
12:20 AM 71.6 °F - 53.6 °F 53% 30.07 in 10.0 mi ENE 8.1 mph - 0.06 in Rain Light Rain
12:56 AM 71.1 °F - 64.0 °F 78% 30.06 in 10.0 mi Calm Calm - 0.06 in Rain Light Rain
1:56 AM 70.0 °F - 64.0 °F 81% 30.01 in 10.0 mi ENE 5.8 mph - 0.01 in   Partly Cloudy
2:56 AM 72.0 °F - 54.0 °F 53% 29.98 in 10.0 mi SE 9.2 mph - N/A   Clear
4:56 AM 75.9 °F - 51.1 °F 42% 30.02 in 10.0 mi Calm Calm - N/A   Mostly Cloudy
5:56 AM 75.0 °F - 55.9 °F 51% 30.04 in 10.0 mi North 8.1 mph - N/A   Clear
6:56 AM 73.0 °F - 50.0 °F 44% 30.05 in 10.0 mi East 3.5 mph - 0.00 in   Partly Cloudy
7:56 AM 73.9 °F - 54.0 °F 50% 30.08 in 9.0 mi Calm Calm - 0.02 in Rain Light Rain
8:56 AM 73.9 °F - 53.1 °F 48% 30.07 in 10.0 mi ESE 6.9 mph - 0.03 in Rain Light Rain
9:56 AM 75.9 °F - 51.1 °F 42% 30.05 in 10.0 mi ESE 9.2 mph - 0.01 in   Partly Cloudy
10:56 AM 77.0 °F - 51.1 °F 40% 30.08 in 10.0 mi South 3.5 mph - N/A   Mostly Cloudy
11:56 AM 79.0 °F - 45.0 °F 30% 30.05 in 10.0 mi South 6.9 mph - N/A   Clear
12:56 PM 82.0 °F - 45.0 °F 27% 30.00 in 10.0 mi SE 9.2 mph - N/A   Clear
1:56 PM 81.0 °F 82.7 °F 64.9 °F 58% 30.01 in 10.0 mi SE 11.5 mph - N/A   Clear
2:56 PM 82.0 °F 83.1 °F 63.0 °F 52% 30.00 in 10.0 mi SE 10.4 mph - N/A   Clear
3:56 PM 80.1 °F 81.9 °F 64.9 °F 60% 29.96 in 10.0 mi SE 15.0 mph 21.9 mph N/A   Clear
4:56 PM 80.1 °F 82.9 °F 69.1 °F 69% 29.99 in 10.0 mi Calm Calm - N/A   Clear
5:56 PM 78.1 °F - 73.0 °F 84% 29.99 in 10.0 mi SSE 6.9 mph - N/A   Clear
6:56 PM 75.9 °F - 71.1 °F 85% 30.00 in 10.0 mi SSE 6.9 mph - N/A   Clear
7:56 PM 75.9 °F - 72.0 °F 87% 30.01 in 10.0 mi SSE 8.1 mph - N/A   Clear
8:56 PM 75.9 °F - 66.9 °F 74% 30.02 in 10.0 mi SSE 4.6 mph - N/A   Clear
9:56 PM 75.0 °F - 66.9 °F 76% 30.03 in 10.0 mi SSE 4.6 mph - N/A   Clear
10:56 PM 73.9 °F - 53.1 °F 48% 30.03 in 10.0 mi Calm Calm - N/A   Clear
11:56 PM 71.1 °F - 57.0 °F 61% 30.02 in 10.0 mi East 3.5 mph - N/A   Clear